www.pogodaiklimat.ru

Погода и климат >> Архив погоды >> Россия >> Ленинградская область >> Волосово


ПОГОДА в Волосово

  • Прогноз погоды в Волосово
  • Монитор погоды в Волосово

АРХИВ ПОГОДЫ в Волосово

Время (UTC), дата Ветер
(напр.,м/с)
 
Видим.   Явления Облачность Т
(С)
Тd
(С)
f
(%)
Тe
(С)
Тes
(С)
Комфортность P
(гПа)
Po
(гПа)
Тmin
(С)
Tmax
(С)
R
(мм)
R24
(мм)
S
(см)
06 17.07 СВ 2 10 км 9/9 840 м
[Sc diur, vesp]
+16.1 +11.6 75 +16 +17 1008.2 993.1 +8.7
09 17.07 СВ 5
{10}
10 км 9/9 800 м
[Sc diur, vesp]
+16.1 +12.2 78 +15 +16 1007.8 992.7
12 17.07 СВ 4
{10}
10 км в посл. час ливневой дождь 9/9 600 м
[Cb cap]
+14.9 +13.1 89 +14 +14 1008.1 993.0
18 17.07 С 2 10 км 8/5 1000 м
[Sc diur, vesp Ci fib]
+16.1 +13.3 83 +16 +16 1008.1 993.0 +18.4 0.3
21 17.07 С 2 10 км 8/5 1000 м
[Sc diur, vesp Ci fib]
+13.6 +12.8 95 +13 +13 1008.0 992.8
00 18.07 С 3 10 км 9/9 840 м
[Sc diur, vesp]
+14.3 +13.8 97 +13 +13 1007.7 992.5
03 18.07 С 3 10 км 9/9 840 м
[Sc diur, vesp]
+15.0 +14.2 95 +14 +14 1007.0 991.9 +13.3
06 18.07 С 2 10 км 9/9 630 м
[Sc diur, vesp]
+16.4 +14.6 89 +16 +17 1006.6 991.6 +13.3
09 18.07 С 4 10 км 9/9 570 м
[Cb cap]
+17.7 +14.7 83 +17 +18 1005.8 990.9
12 18.07 С 4 10 км в посл. час ливневой дождь 9/9 540 м
[Cb cap]
+16.7 +13.9 84 +16 +17 1005.6 990.6
15 18.07 С 4
{10}
4000 м слаб. ливневой дождь 10/10 400 м
[Cb cap]
+15.1 +14.1 94 +14 +14 1005.6 990.5 4
18 18.07 С 5 4000 м слаб. ливневой дождь 10/10 300 м
[Cb cap]
+14.7 +13.7 94 +13 +13 1005.0 989.9 +19.0 5
21 18.07 С 4 4000 м слаб. ливневой дождь 10/10 300 м
[Cb cap]
+14.9 +14.1 95 +14 +14 1004.6 989.5
00 19.07 С 4 10 км {ливн. осадки} 10/10 300 м
[St]
+14.9 +14.3 96 +14 +14 1004.8 989.7
03 19.07 СЗ 3 10 км в посл. час морось 10/10 270 м
[St]
+14.8 +14.3 97 +14 +14 1004.9 989.8 +14.7 3
06 19.07 С 3 4000 м слаб. ливневой дождь {морось} 10/10 300 м
[Cb cap]
+15.2 +14.7 97 +14 +14 1005.0 989.9 +14.7 4
09 19.07 СЗ 4 10 км в посл. час ливневой дождь 10/10 330 м
[Cb cap]
+16.1 +15.0 93 +15 +15 1005.3 990.3
12 19.07 С 4 10 км {ливн. осадки} 9/9 540 м
[Cb cap]
+16.3 +14.8 91 +16 +16 1005.8 990.8
15 19.07 СЗ 4 10 км 9/9 600 м
[Cb cap]
+16.1 +14.7 91 +15 +16 1006.6 991.6 8
18 19.07 С 3 10 км {ливн. осадки} 10/10 360 м
[St]
+15.5 +14.9 96 +15 +15 1007.4 992.3 +17.1 6
21 19.07 СЗ 2 10 км ливневой дождь 10/10 400 м
[Cb cap]
+14.8 +14.2 96 +14 +14 1008.0 992.9
00 20.07 СЗ 3 10 км слаб. ливневой дождь 10/10 400 м
[Cb cap]
+14.7 +14.1 96 +14 +14 1008.3 993.2
03 20.07 СЗ 3 4000 м слаб. морось 10/10 300 м
[St]
+14.6 +14.0 96 +14 +14 1009.1 994.0 +14.6 9
06 20.07 СЗ 2 10 км {ливн. осадки, морось} 9/9 480 м
[Cb cap]
+15.4 +14.6 95 +15 +16 1009.9 994.8 +14.6 9
09 20.07 СЗ 2 10 км {ливн. осадки} 9/9 540 м
[Cb cap]
+16.5 +15.4 93 +17 +18 1011.7 996.6
12 20.07 СЗ 4 10 км {ливн. осадки} 9/9 660 м
[Cb cap]
+18.8 +15.3 80 +20 +21 1013.3 998.3
15 20.07 З 5 10 км 9/8 800 м
[Sc diur, vesp Ci fib]
+19.7 +15.1 75 +22 +22 комфорт 1014.0 999.1 1
18 20.07 З 2 10 км 3/1 1000 м
[Sc diur, vesp Ci fib]
+18.0 +14.2 78 +19 +19 1014.9 999.8 +20.5 0.3
21 20.07 СЗ 1 10 км 1/1 1000 м
[Sc diur, vesp]
+11.8 +11.1 95 +12 +12 1016.5 1001.1
00 21.07 С 1 10 км туман поземный ясно +11.0 +10.3 95 +11 +11 1017.3 1001.8
03 21.07 штиль 0 10 км туман поземный ясно +10.6 +10.1 97 +10 +11 1017.5 1002.0 +8.7
06 21.07 СЗ 3 10 км ясно +19.4 +12.4 64 +21 +26 комфорт 1017.5 1002.5 +8.7
09 21.07 С 3 10 км 3/3 1000 м
[Cu hum]
+22.9 +12.0 50 +25 +33 комфорт 1017.7 1002.8
12 21.07 С 1 10 км 8/8 1080 м
[Cu med, cong]
+22.1 +12.6 55 +25 +27 комфорт 1017.8 1002.9
15 21.07 С 1 10 км 4/3 1000 м
[Sc diur, vesp Ci fib]
+23.7 +11.8 47 +25 +28 комфорт 1017.0 1002.2
18 21.07 СВ 1 10 км 3/3 1000 м
[Sc diur, vesp Ci fib]
+18.4 +14.6 79 +20 +20 1017.1 1002.0 +25.1
21 21.07 штиль 0 10 км 3/3 1000 м
[Sc diur, vesp]
+11.5 +10.7 95 +11 +11 1017.9 1002.5
00 22.07 С 1 10 км ясно +8.9 +8.5 97 +8 +8 1017.8 1002.2
03 22.07 СВ 1 10 км ясно +11.5 +11.0 97 +11 +12 1017.4 1001.9 +8.3
06 22.07 В 4 10 км 3/0
[Ci fib]
+19.7 +12.3 62 +21 +25 комфорт 1016.2 1001.2 +8.3
09 22.07 СВ 3 10 км 4/1 1000 м
[Cu hum Ci fib]
+23.0 +8.2 39 +24 +33 комфорт 1015.9 1001.0
12 22.07 С 3 10 км 4/3 1000 м
[Cu hum Ci fib]
+24.8 +8.9 36 +25 +32 комфорт 1015.0 1000.3
15 22.07 С 2 10 км 4/3 1000 м
[Cu hum Ci fib]
+24.2 +9.0 38 +25 +28 комфорт 1014.2 999.4
18 22.07 СВ 1 10 км 4/3 1000 м
[Sc diur, vesp Ci fib]
+20.2 +11.0 55 +23 +23 комфорт 1014.0 999.0 +25.1
00 23.07 СЗ 1 10 км ясно +9.5 +8.6 94 +9 +9 1014.9 999.4
06 23.07 С 2 10 км 1/0
[Ci fib]
+20.3 +12.2 60 +23 +29 комфорт 1013.9 999.0 +9.0
09 23.07 СВ 3 10 км 1/0
[Ci fib]
+23.0 +9.6 43 +25 +35 комфорт 1013.9 999.1
12 23.07 С 3 10 км 3/3 1000 м
[Cu hum]
+24.6 +9.6 39 +25 +32 комфорт 1013.6 998.9
15 23.07 С 2 10 км 8/5 1000 м
[Cb calv Ci fib]
+23.2 +12.1 50 +26 +28 жарко 1013.2 998.4
18 23.07 С 2 10 км 8/4 1000 м
[Sc diur, vesp Ci fib]
+20.2 +12.5 61 +23 +23 комфорт 1013.9 999.0 +25.5
21 23.07 штиль 0 10 км 8/3 1000 м
[Sc diur, vesp Ci fib]
+13.5 +12.6 94 +13 +13 1014.2 998.9

 

Местоположение метеостанции Волосово (Ленинградская область, Россия): широта 59.43 долгота 29.50 высота над уровнем моря 129 м.

В архиве по умолчанию представлена погода в Волосово за последнюю неделю. Архивные данные за месяц целиком и за предыдущие месяцы, начиная с января 2011 года, Вы можете получить, выбрав интересующий диапазон дат из раскрывающегося списка и нажав кнопку "Ввод!".


*Определитесь, кто Вы:
робот инопланетянин человек

Внимание! Время в таблицах - всемирное. Для получения местного времени необходимо прибавить поправку, которая равна 3 ч.

Смотрите также архив погоды в соседних городах и на ближайших метеорологических станциях:

Погода в Белогорке (Ленинградская область, Россия) (37 км)
Погода в Сосновом Бору (Ленинградская область, Россия) (47 км)
Погода в Шепелево (Ленинградская область, Россия) (48 км)
Погода в Кингисеппе (Ленинградская область, Россия) (51 км)
Погода в Ломоносове (город Санкт-Петербург, Россия) (57 км)
Погода в Кронштадте (город Санкт-Петербург, Россия) (63 км)
Погода в Лисьем Носу (город Санкт-Петербург, Россия) (71 км)
Погода в Санкт-Петербурге (город Санкт-Петербург, Россия) (75 км)
Погода в Нарве (Эстония) (78 км)
Погода в Сланцах (Ленинградская область, Россия) (88 км)

Пояснения к столбцам:

Ветер - указаны скорость ветра в м/с - средняя за 10 мин, порывы в срок и между сроками (в фигурных скобках) и направление, откуда дует ветер: С - северный, СВ - северо-восточный, В - восточный, ЮВ - юго-восточный, Ю - южный, ЮЗ - юго-западный, З - западный, СЗ - северо-западный.
Видимость - горизонтальная дальность видимости в метрах или километрах. При видимости от 1 до 10 км при отсутствии осадков обычно наблюдается дымка, при ухудшении видимости до 1 км и менее - туман. В сухую погоду видимость может ухудшаться дымом, пылью или мглою.
Явления - указаны атмосферные явления, наблюдавшиеся в срок или в последний час перед сроком; фигурными скобками обозначены явления, наблюдавшиеся между сроками (за 1-3 часа до срока); квадратными скобками обозначены град или гололедные отложения с указанием их диаметра в мм.
Облачность - указаны через наклонную черту общая и нижняя облачность в баллах и высота нижней границы облаков в метрах; квадратными скобками обозначены формы облаков: Ci - перистые, Cs - перисто-слоистые, Cc - перисто-кучевые, Ac - высококучевые, As - высокослоистые, Sc - слоисто-кучевые, Ns - слоисто-дождевые, Cu - кучевые, Cb - кучево-дождевые. Подробнее классификацию облаков см. в Атласе облаков (PDF).
T - Температура воздуха - температура, измеренная на высоте 2 м над землей.
Td - Температура точки росы - температура, при понижении до которой содержащийся в воздухе водяной пар достигнет насыщения.
f - Относительная влажность воздуха - влажноcть воздуха, измеренная на высоте 2 м над землей.
Te - Эффективная температура - температура, которую ощущает одетый по сезону человек в тени. Характеристика душности погоды. При расчете учитывается влияние влажности воздуха и скорости ветра на теплоощущения человека.
Tes - Эффективная температура на солнце - температура, которую ощущает человек, с поправкой на солнечный нагрев. Характеристика знойности погоды. Зависит от высоты солнца над горизонтом, облачности и скорости ветра. Ночью, в пасмурную погоду, а также при ветре 12 м/с и более поправка равна нулю.
P - Атмосферное давление - приведенное к уровню моря атмосферное давление.
Po - Атмосферное давление - измеренное на уровне метеостанции атмосферное давление.
Tmin - Минимальная температура - минимум температуры воздуха на высоте 2 м над землей.
Tmax - Максимальная температура - максимум температуры воздуха на высоте 2 м над землей.
R - Количество осадков - Количество выпавших осадков за период времени, мм. При наведении курсора мыши на число - период времени, за который выпало указанное количество осадков.
R24 - Количество осадков - Количество выпавших осадков за 24 часа, мм.
S - Снежный покров - Высота снежного покрова, см. При наведении курсора мыши на число - состояние снежного покрова и степень покрытия местности в баллах.